Вернуться в каталог

FENGYUN 1C DEB

АктивенSSO
NORAD 29784·DEBRIS·🇨🇳 China

Запущен May 10, 1999 с Taiyuan Satellite Launch Center

Loading…

Ближайшие Пролёты (ближайшие 24 часа)

TLE

СвежийSource: Space-Track

Эпоха: Sep 14, 2026, 06:56 UTC

1 29784U 99025CA  26257.28922392  .00000636  00000-0  25388-3 0  9998
2 29784  98.9512 189.2023 0058316 213.4813 307.2514 14.31194314 22979

Отслеживайте FENGYUN 1C DEB в реальном времени с AllMySat

Download on the App Store